Location: Banios
(43.0451°N, 0.2335°E)
Time: 13:14:33
(UTC+00:00)

Transit 2A - All Passes

Search period start: 13 May 2021 00:00
Search period end: 23 May 2021 00:00
Orbit: 602 x 957 km, 66.7° (Epoch: 12 May)

Date Brightness Start Highest point End Pass type
(mag) Time Alt. Az. Time Alt. Az. Time Alt. Az.
13 May - 01:35:47 10° SSW 01:40:22 86° WNW 01:44:46 10° NNE visible
13 May - 03:22:07 10° WNW 03:24:08 13° NW 03:26:10 10° NNW visible
13 May - 08:38:48 10° N 08:41:23 15° NE 08:44:04 10° ENE daylight
13 May - 10:20:28 10° NNW 10:25:05 89° WSW 10:30:08 10° SSE daylight
13 May - 12:06:57 10° W 12:07:37 10° WSW 12:08:19 10° WSW daylight
14 May - 01:01:42 10° SSW 01:06:13 61° ESE 01:10:32 10° NE visible
14 May - 02:46:41 10° W 02:49:42 18° NW 02:52:41 10° N visible
14 May - 08:05:45 10° NNE 08:06:54 11° NE 08:08:04 10° NE daylight
14 May - 09:46:20 10° NNW 09:50:54 62° ENE 09:55:51 10° SE daylight
14 May - 11:30:43 10° WNW 11:33:38 16° WSW 11:36:42 10° SW daylight
15 May - 00:27:51 10° S 00:32:06 39° ESE 00:36:11 10° NE visible
15 May - 02:11:39 10° WSW 02:15:19 24° NW 02:18:55 10° N visible
15 May - 09:12:17 10° NNW 09:16:39 42° NE 09:21:23 10° SE daylight
15 May - 10:55:49 10° WNW 10:59:37 24° WSW 11:03:39 10° SSW daylight
15 May - 23:54:17 10° SSE 23:58:03 25° ESE 00:01:39 10° NE visible
16 May - 01:36:53 10° WSW 01:41:00 35° NW 01:45:01 10° NNE visible
16 May - 08:38:20 10° NNW 08:42:22 30° NE 08:46:41 10° ESE daylight
16 May - 10:21:15 10° NW 10:25:32 36° WSW 10:30:11 10° S daylight
16 May - 23:21:10 10° SSE 23:24:01 17° ESE 23:26:48 10° ENE visible
17 May - 01:02:19 10° SW 01:06:45 52° NW 01:11:01 10° NNE visible
17 May - 08:04:29 10° N 08:08:02 21° NE 08:11:46 10° E daylight
17 May - 09:46:52 10° NW 09:51:25 55° WSW 09:56:24 10° SSE daylight
17 May - 22:49:24 10° ESE 22:50:03 10° ESE 22:50:40 10° E visible
18 May - 00:28:00 10° SSW 00:32:32 80° WNW 00:36:54 10° NNE visible
18 May - 02:14:38 10° WNW 02:16:23 12° NW 02:18:07 10° NNW visible
18 May - 07:30:48 10° N 07:33:37 16° NE 07:36:34 10° E daylight
18 May - 09:12:37 10° NNW 09:17:16 83° WSW 09:22:22 10° SSE daylight
18 May - 23:53:52 10° SSW 23:58:22 67° ESE 00:02:42 10° NE visible
19 May - 01:39:05 10° W 01:41:55 16° NW 01:44:43 10° N visible
19 May - 06:57:29 10° NNE 06:59:09 12° NE 07:00:50 10° ENE daylight
19 May - 08:38:27 10° NNW 08:43:05 67° ENE 08:48:08 10° SE daylight
19 May - 10:23:02 10° WNW 10:25:48 15° WSW 10:28:40 10° SW daylight
19 May - 23:19:58 10° S 23:24:15 42° ESE 23:28:23 10° NE visible
20 May - 01:03:59 10° W 01:07:31 23° NW 01:11:00 10° N visible
20 May - 08:04:24 10° NNW 08:08:52 46° NE 08:13:42 10° SE daylight
20 May - 09:48:03 10° WNW 09:51:46 23° WSW 09:55:45 10° SSW daylight
20 May - 22:46:21 10° S 22:50:11 27° ESE 22:53:53 10° NE visible
21 May - 00:29:10 10° WSW 00:33:12 32° NW 00:37:07 10° NNE visible
21 May - 07:30:25 10° NNW 07:34:35 32° NE 07:39:04 10° ESE daylight
21 May - 09:13:26 10° NW 09:17:42 34° WSW 09:22:19 10° S daylight
21 May - 22:13:07 10° SSE 22:16:09 18° ESE 22:19:07 10° ENE visible
21 May - 23:54:35 10° SW 23:58:55 47° NW 00:03:08 10° NNE visible
22 May - 06:56:32 10° N 07:00:15 23° NE 07:04:11 10° E daylight
22 May - 08:39:02 10° NW 08:43:36 51° WSW 08:48:35 10° S daylight
22 May - 21:40:50 10° ESE 21:42:10 11° ESE 21:43:30 10° E visible
22 May - 23:20:12 10° SW 23:24:42 73° WNW 23:29:03 10° NNE visible
